Location: Guferjoch
(46.7462°N, 8.4506°E)
Time: 13:04:52
(UTC+00:00)

DELTA 2 DEB (DPAF) - Pass Details

Date: 14 July 2020
Orbit: 641 x 647 km, 98.3° (Epoch: 07 August)

Event Time Altitude Azimuth Distance (km) Brightness Sun altitude
Exits shadow 00:46:49 37° 159° (SSE) 1,004 4.7 -19.6°
Maximum altitude 00:48:33 83° 75° (ENE) 657 4.1 -19.5°
Drops below altitude 10° 00:53:02 10° 348° (NNW) 2,053 7.6 -19.2°
Sets 00:55:15 0° 347° (NNW) 2,966 8.5 -19.1°
